Location: Gleizolles
(44.4833°N, 6.7667°E)
Time: 11:40:35
(UTC+00:00)

A-11 Canister half - Pass Details

Date: 18 June 2024
Orbit: 1515 x 1685 km, 47.2° (Epoch: 14 July)

Event Time Altitude Azimuth Distance (km) Brightness Sun altitude
Rises 20:33:36 0° 266° (W) 4,914 12.2 -10.5°
Reaches altitude 10° 20:36:48 10° 268° (W) 3,911 11.7 -10.9°
Maximum altitude 20:46:51 77° 354° (N) 1,661 9.3 -12.1°
Drops below altitude 10° 20:56:33 10° 81° (E) 3,782 10.8 -13.1°
Sets 20:59:35 0° 83° (E) 4,745 11.3 -13.4°
